CW6739 Weather Reports


Display with metric or nautical units.
time (UTC)temp
F
wind
direction
speed
MPH
gust
MPH
rain 1hr
in
rain 24hr
in
rain mn
in
humidity
%
barometer
mb
20260505200807 51 159 4.0 15.0 0.00 0.00 0.00 53 1004.9
20260505200304 50 142 7.0 17.0 0.00 0.00 0.00 54 1004.9
20260505195759 51 165 4.0 15.0 0.00 0.00 0.00 54 1004.7
20260505195257 50 129 8.0 15.0 0.00 0.00 0.00 53 1004.7
20260505194754 51 155 5.0 10.0 0.00 0.00 0.00 53 1004.6
20260505194250 51 98 4.0 15.0 0.00 0.00 0.00 53 1004.7
20260505193746 51 156 8.0 15.0 0.00 0.00 0.00 52 1004.9
20260505193244 51 119 5.0 14.0 0.00 0.00 0.00 51 1004.9
20260505192742 51 181 5.0 20.0 0.00 0.00 0.00 51 1004.6
20260505192239 51 71 5.0 17.0 0.00 0.00 0.00 52 1004.7
20260505191737 51 157 13.0 13.0 0.00 0.00 0.00 52 1004.8
20260505191236 50 146 3.0 13.0 0.00 0.00 0.00 53 1004.7
20260505190731 50 93 4.0 9.0 0.00 0.00 0.00 53 1004.7
20260505190231 50 240 3.0 19.0 0.00 0.00 0.00 54 1004.7
20260505185728 49 160 10.0 15.0 0.00 0.00 0.00 54 1004.7
20260505185225 49 183 3.0 11.0 0.00 0.00 0.00 54 1004.7
20260505184720 49 141 5.0 15.0 0.00 0.00 0.00 55 1004.4
20260505184218 50 114 1.0 11.0 0.00 0.00 0.00 55 1004.7
20260505183715 49 146 4.0 11.0 0.00 0.00 0.00 54 1004.4
20260505183213 49 165 6.0 13.0 0.00 0.00 0.00 54 1004.5
20260505182708 49 87 3.0 11.0 0.00 0.00 0.00 54 1004.6
20260505182206 49 173 6.0 14.0 0.00 0.00 0.00 53 1004.2
20260505181702 49 169 6.0 17.0 0.00 0.00 0.00 54 1004.3
20260505181200 50 154 6.0 14.0 0.00 0.00 0.00 54 1004.2
20260505180655 50 169 4.0 17.0 0.00 0.00 0.00 53 1004.2
20260505180153 49 157 6.0 9.0 0.00 0.00 0.00 55 1004.1
20260505175649 49 74 2.0 10.0 0.00 0.00 0.00 55 1004.4
20260505175145 49 177 4.0 16.0 0.00 0.00 0.00 54 1004.0
20260505174642 49 112 4.0 19.0 0.00 0.00 0.00 55 1004.0
20260505174138 49 158 3.0 12.0 0.00 0.00 0.00 56 1003.9
20260505173635 49 200 3.0 13.0 0.00 0.00 0.00 56 1003.9
20260505173132 49 158 8.0 13.0 0.00 0.00 0.00 56 1004.0
20260505172629 48 211 7.0 10.0 0.00 0.00 0.00 57 1004.0
20260505172126 48 146 2.0 9.0 0.00 0.00 0.00 58 1003.8
20260505171621 48 174 5.0 11.0 0.00 0.00 0.00 58 1003.9
20260505171118 48 172 5.0 16.0 0.00 0.00 0.00 58 1003.8
20260505170615 49 140 3.0 8.0 0.00 0.00 0.00 58 1003.5
20260505170111 49 176 6.0 17.0 0.00 0.00 0.00 56 1003.7
20260505165606 49 179 6.0 15.0 0.00 0.00 0.00 57 1003.8
20260505165102 49 141 6.0 10.0 0.00 0.00 0.00 56 1003.6
20260505164558 48 156 7.0 9.0 0.00 0.00 0.00 57 1003.5
20260505164056 48 154 3.0 9.0 0.00 0.00 0.00 58 1003.6
20260505163555 48 48 4.0 11.0 0.00 0.00 0.00 58 1003.7
20260505163051 48 155 5.0 16.0 0.00 0.00 0.00 58 1003.6
20260505162549 47 192 6.0 12.0 0.00 0.00 0.00 60 1003.6
20260505162047 47 90 3.0 9.0 0.00 0.00 0.00 59 1003.4
20260505161543 47 141 5.0 14.0 0.00 0.00 0.00 59 1003.6
20260505161041 47 153 10.0 11.0 0.00 0.00 0.00 59 1003.6
20260505160539 47 144 9.0 14.0 0.00 0.00 0.00 60 1003.3
20260505153015 46 169 3.0 12.0 0.00 0.00 0.00 60 1002.9
20260505152512 46 138 5.0 9.0 0.00 0.00 0.00 60 1003.1
20260505152008 46 163 5.0 6.0 0.00 0.00 0.00 60 1003.0
20260505151503 46 174 1.0 11.0 0.00 0.00 0.00 60 1003.2
20260505151000 47 150 4.0 9.0 0.00 0.00 0.00 59 1003.0
20260505150457 47 114 4.0 15.0 0.00 0.00 0.00 59 1002.8
20260505140427 46 54 1.0 11.0 0.00 0.00 0.00 71 1002.8
20260505124840 42 195 3.0 5.0 0.00 0.00 0.00 86 1002.8
20260505124337 41 353 2.0 3.0 0.00 0.00 0.00 90 1002.8
20260505123833 42 190 4.0 4.0 0.00 0.00 0.00 85 1002.8
20260505123330 43 171 3.0 7.0 0.00 0.00 0.00 81 1002.7
20260505122826 43 90 3.0 5.0 0.00 0.00 0.00 84 1002.6
20260505122324 42 141 2.0 5.0 0.00 0.00 0.00 85 1002.5
20260505121820 42 66 1.0 5.0 0.00 0.00 0.00 87 1002.6
20260505121317 41 183 2.0 5.0 0.00 0.00 0.00 92 1002.5
20260505120813 41 150 4.0 5.0 0.00 0.00 0.00 92 1002.7
20260505120309 42 180 3.0 6.0 0.00 0.00 0.00 89 1002.8
20260505115808 45 152 6.0 7.0 0.00 0.00 0.00 75 1002.6
20260505115306 45 240 0.0 7.0 0.00 0.00 0.00 76 1002.6
20260505114803 45 70 2.0 8.0 0.00 0.00 0.00 76 1002.5
20260505114300 45 21 2.0 8.0 0.00 0.00 0.00 77 1002.6
20260505113756 44 41 2.0 6.0 0.00 0.00 0.00 78 1002.7
20260505113252 43 149 2.0 5.0 0.00 0.00 0.00 81 1002.7
20260505112748 42 300 1.0 2.0 0.00 0.00 0.00 88 1002.6
20260505112246 42 330 0.0 2.0 0.00 0.00 0.00 88 1002.4
20260505111746 42 180 0.0 1.0 0.00 0.00 0.00 88 1002.6
20260505111242 42 204 0.0 2.0 0.00 0.00 0.00 88 1002.6
20260505110738 42 90 2.0 6.0 0.00 0.00 0.00 87 1002.8
20260505110237 42 148 1.0 6.0 0.00 0.00 0.00 89 1002.8
20260505102212 41 251 1.0 6.0 0.00 0.00 0.00 96 1003.0
20260505101711 41 353 0.0 3.0 0.00 0.00 0.00 95 1002.7
20260505101206 41 30 2.0 3.0 0.00 0.00 0.00 94 1002.9
20260505100703 41 26 0.0 3.0 0.00 0.00 0.00 93 1002.6
20260505100200 42 5 1.0 3.0 0.00 0.00 0.00 92 1002.6
20260505095655 42 23 0.0 2.0 0.00 0.00 0.00 90 1002.5
20260505095153 42 178 3.0 4.0 0.00 0.00 0.00 92 1002.7
20260505094649 41 192 0.0 3.0 0.00 0.00 0.00 95 1002.5
20260505094145 41 346 0.0 3.0 0.00 0.00 0.00 96 1002.6
20260505093642 41 199 5.0 9.0 0.00 0.00 0.00 95 1003.1
20260505093139 41 154 3.0 4.0 0.00 0.00 0.00 95 1002.9
20260505092636 41 270 0.0 5.0 0.00 0.00 0.00 95 1002.7
20260505092135 41 232 0.0 4.0 0.00 0.00 0.00 95 1002.7
20260505091631 41 254 0.0 5.0 0.00 0.00 0.00 95 1002.8
20260505091129 41 180 3.0 3.0 0.00 0.00 0.00 94 1002.6
20260505090627 41 16 4.0 5.0 0.00 0.00 0.00 94 1002.5
20260505090125 41 106 0.0 4.0 0.00 0.00 0.00 94 1002.7
20260505085622 42 283 0.0 4.0 0.00 0.00 0.00 91 1002.5
20260505085120 44 306 1.0 5.0 0.00 0.00 0.00 86 1002.8
20260505084618 49 106 0.0 9.0 0.00 0.00 0.00 66 1002.5
20260505084116 48 149 6.0 8.0 0.00 0.00 0.00 67 1002.5
20260505083613 48 186 7.0 14.0 0.00 0.00 0.00 67 1002.5
20260505083109 49 186 5.0 11.0 0.00 0.00 0.00 68 1002.5
20260505082605 49 65 2.0 10.0 0.00 0.00 0.00 68 1002.5
20260505082103 49 178 3.0 12.0 0.00 0.00 0.00 68 1002.5
20260505081558 48 150 2.0 9.0 0.00 0.00 0.00 68 1002.3
20260505081056 49 156 7.0 17.0 0.00 0.00 0.00 68 1002.4
20260505080552 48 203 1.0 11.0 0.00 0.00 0.00 69 1002.7
20260505080049 48 106 5.0 10.0 0.00 0.00 0.00 69 1002.6
20260505075544 49 161 9.0 15.0 0.00 0.05 0.05 68 1002.7
20260505075042 49 96 5.0 16.0 0.00 0.05 0.05 67 1002.4
20260505074538 48 196 0.0 7.0 0.00 0.05 0.05 69 1002.6
20260505074036 47 291 1.0 4.0 0.00 0.05 0.05 79 1002.6
20260505073533 48 139 4.0 8.0 0.00 0.05 0.05 77 1002.6
20260505073032 50 195 4.0 5.0 0.00 0.05 0.05 68 1002.7
20260505072527 50 169 2.0 12.0 0.00 0.05 0.05 65 1002.7
20260505072023 50 214 11.0 12.0 0.00 0.05 0.05 65 1002.4
20260505071519 50 160 6.0 10.0 0.00 0.05 0.05 66 1002.8
20260505071017 50 152 5.0 16.0 0.00 0.05 0.05 67 1003.0
20260505070514 50 158 5.0 18.0 0.00 0.05 0.05 66 1002.8
20260505070010 50 131 2.0 14.0 0.00 0.05 0.05 67 1002.7
20260505065506 49 196 6.0 11.0 0.00 0.05 0.05 67 1003.0
20260505065003 50 103 2.0 9.0 0.00 0.05 0.05 67 1003.2
20260505064500 50 139 9.0 12.0 0.00 0.05 0.05 66 1003.0
20260505063958 50 71 2.0 9.0 0.00 0.05 0.05 65 1003.0
20260505063455 50 166 4.0 11.0 0.00 0.05 0.05 65 1002.9
20260505062951 50 171 8.0 15.0 0.00 0.05 0.05 65 1002.7
20260505062448 50 171 8.0 13.0 0.00 0.05 0.05 67 1002.8
20260505061945 50 153 6.0 10.0 0.00 0.05 0.05 67 1002.8
20260505061443 49 157 2.0 9.0 0.00 0.05 0.05 68 1003.0
20260505060940 50 206 5.0 12.0 0.00 0.05 0.05 67 1003.0
20260505060437 50 246 5.0 6.0 0.00 0.05 0.05 67 1003.0
20260505055933 50 167 7.0 8.0 0.00 0.05 0.05 67 1003.0
20260505055430 50 147 5.0 11.0 0.00 0.05 0.05 67 1002.9
20260505054926 50 186 5.0 13.0 0.00 0.05 0.05 66 1003.3
20260505054424 50 161 4.0 8.0 0.00 0.05 0.05 66 1003.4
20260505053922 50 80 4.0 6.0 0.00 0.05 0.05 65 1003.1
20260505053418 50 139 2.0 10.0 0.00 0.05 0.05 65 1003.3
20260505052915 51 64 7.0 14.0 0.00 0.05 0.05 64 1003.2
20260505052412 51 145 5.0 19.0 0.00 0.05 0.05 64 1003.5
20260505051910 51 54 1.0 17.0 0.00 0.05 0.05 62 1003.2
20260505051407 51 173 3.0 16.0 0.00 0.05 0.05 64 1003.6
20260505050905 50 32 0.0 11.0 0.00 0.05 0.05 65 1003.6
20260505050403 51 144 5.0 8.0 0.00 0.05 0.05 65 1003.8
20260505041330 52 166 7.0 15.0 0.00 0.05 0.05 63 1004.2
20260505040827 51 183 8.0 14.0 0.00 0.05 0.05 64 1004.1
20260505040325 52 170 6.0 13.0 0.00 0.05 0.05 65 1004.2
20260505035821 51 196 5.0 16.0 0.00 0.05 0.05 65 1004.5
20260505035317 52 218 8.0 14.0 0.00 0.05 0.05 64 1004.6
20260505034815 52 177 11.0 17.0 0.00 0.05 0.05 63 1004.8
20260505034311 53 159 12.0 18.0 0.00 0.05 0.05 62 1004.6
20260505033808 53 197 6.0 21.0 0.00 0.05 0.05 61 1004.8
20260505033305 53 191 5.0 23.0 0.00 0.05 0.05 61 1004.7
20260505032804 55 127 8.0 13.0 0.00 0.05 0.05 60 1004.8
20260505032259 54 155 6.0 18.0 0.00 0.05 0.05 61 1004.8
20260505031756 54 215 6.0 15.0 0.00 0.05 0.05 61 1004.7
20260505031252 54 180 10.0 19.0 0.00 0.05 0.05 61 1005.1
20260505030750 54 191 5.0 18.0 0.00 0.05 0.05 63 1005.2
20260505030246 54 143 9.0 21.0 0.00 0.05 0.05 62 1005.2
20260505025742 54 151 7.0 17.0 0.00 0.05 0.05 61 1005.2
20260505025240 55 150 4.0 15.0 0.00 0.05 0.05 59 1005.4
20260505024738 55 111 4.0 20.0 0.00 0.05 0.05 60 1005.5
20260505024235 56 154 6.0 17.0 0.00 0.05 0.05 59 1005.5
20260505023732 55 114 4.0 14.0 0.00 0.05 0.05 62 1005.7
20260505023229 56 110 2.0 13.0 0.00 0.05 0.05 61 1005.9
20260505022727 55 107 20.0 20.0 0.00 0.05 0.05 61 1006.0
20260505022224 56 122 4.0 12.0 0.00 0.05 0.05 60 1005.9
20260505021720 56 6 3.0 12.0 0.00 0.05 0.05 62 1006.2
20260505021217 55 191 6.0 17.0 0.00 0.05 0.05 62 1006.5
20260505020713 55 142 9.0 12.0 0.00 0.05 0.05 62 1006.6
20260505020208 54 159 10.0 17.0 0.00 0.05 0.05 64 1006.6
20260505015706 54 144 2.0 15.0 0.00 0.05 0.05 63 1006.4
20260505015203 56 184 17.0 17.0 0.00 0.05 0.05 62 1006.3
20260505014700 55 141 7.0 12.0 0.00 0.05 0.05 63 1007.0
20260505014157 54 159 7.0 14.0 0.00 0.05 0.05 63 1006.8
20260505013654 54 144 9.0 15.0 0.00 0.05 0.05 62 1006.8
20260505013151 53 159 8.0 13.0 0.00 0.05 0.05 66 1006.8
20260505012649 53 105 2.0 16.0 0.00 0.05 0.05 67 1006.9
20260505012146 53 168 4.0 15.0 0.00 0.05 0.05 68 1006.6
20260505011641 52 139 2.0 21.0 0.00 0.05 0.05 68 1006.7
20260505011134 53 137 3.0 17.0 0.00 0.05 0.05 66 1006.9
20260505010633 54 147 5.0 14.0 0.00 0.05 0.05 66 1007.0
20260505010131 54 111 8.0 11.0 0.00 0.05 0.05 63 1006.8
20260505005627 55 350 2.0 18.0 0.00 0.05 0.05 62 1007.2
20260505005124 55 103 2.0 23.0 0.00 0.05 0.05 61 1007.1
20260505004621 55 173 5.0 15.0 0.00 0.05 0.05 62 1007.5
20260505004118 55 150 8.0 11.0 0.00 0.05 0.05 60 1007.7
20260505003615 55 155 7.0 14.0 0.00 0.05 0.05 61 1007.9
20260505003113 55 270 2.0 11.0 0.00 0.05 0.05 61 1008.1
20260505002608 56 118 5.0 16.0 0.00 0.05 0.05 60 1008.3
20260505002107 56 139 5.0 11.0 0.00 0.05 0.05 60 1008.0
20260505001604 56 15 2.0 7.0 0.00 0.05 0.05 58 1008.3
20260505001101 56 154 7.0 18.0 0.00 0.05 0.05 58 1008.2
20260505000558 56 77 1.0 13.0 0.00 0.05 0.05 58 1008.3
20260505000056 57 171 5.0 17.0 0.00 0.05 0.05 56 1008.3
20260504235552 58 75 6.0 9.0 0.00 0.05 0.05 58 1008.6
20260504235049 58 81 0.0 12.0 0.00 0.05 0.05 57 1008.5
20260504234546 56 259 3.0 15.0 0.00 0.05 0.05 59 1008.5
20260504234043 57 8 2.0 13.0 0.00 0.05 0.05 59 1008.4
20260504233538 57 128 4.0 14.0 0.00 0.05 0.05 58 1008.5
20260504233035 58 156 11.0 17.0 0.00 0.05 0.05 56 1008.3
20260504232532 58 153 6.0 19.0 0.00 0.05 0.05 56 1008.6
20260504232030 57 142 5.0 20.0 0.00 0.05 0.05 58 1008.6
20260504231526 57 175 6.0 19.0 0.00 0.05 0.05 58 1008.6
20260504231022 57 153 7.0 17.0 0.00 0.05 0.05 58 1008.7
20260504230519 58 148 4.0 18.0 0.00 0.05 0.05 58 1008.8
20260504230018 57 153 4.0 17.0 0.00 0.05 0.05 59 1009.0
20260504225515 58 158 6.0 20.0 0.00 0.05 0.05 56 1009.0
20260504225012 57 155 5.0 13.0 0.00 0.05 0.05 57 1009.1
20260504224508 58 149 8.0 17.0 0.00 0.05 0.05 57 1009.3
20260504224005 57 202 5.0 16.0 0.00 0.05 0.05 58 1009.3
20260504223502 57 185 11.0 18.0 0.00 0.05 0.05 58 1009.2
20260504222957 57 181 7.0 19.0 0.00 0.05 0.05 57 1009.7
20260504222455 56 90 5.0 18.0 0.00 0.05 0.05 58 1009.6
20260504221952 57 334 4.0 8.0 0.00 0.05 0.05 60 1009.8
20260504221449 56 66 6.0 14.0 0.00 0.05 0.05 61 1009.8
20260504220946 56 160 5.0 13.0 0.00 0.05 0.05 61 1010.0
20260504220443 55 180 1.0 11.0 0.00 0.05 0.05 63 1010.1
20260504215940 55 193 3.0 10.0 0.00 0.05 0.05 63 1010.2
20260504215436 55 29 1.0 11.0 0.00 0.05 0.05 63 1010.3
20260504214933 54 118 3.0 6.0 0.00 0.05 0.05 63 1010.4
20260504214429 53 98 5.0 12.0 0.00 0.05 0.05 62 1010.2
20260504213926 53 119 2.0 8.0 0.00 0.05 0.05 65 1010.5
20260504213422 52 175 9.0 9.0 0.00 0.05 0.05 64 1010.6
20260504212920 52 157 8.0 17.0 0.00 0.05 0.05 64 1010.7
20260504212415 51 33 3.0 14.0 0.00 0.05 0.05 65 1010.5
20260504211914 51 64 3.0 10.0 0.00 0.05 0.05 66 1010.8
20260504211409 51 74 3.0 16.0 0.00 0.05 0.05 66 1010.9
20260504210907 51 86 0.0 9.0 0.00 0.05 0.05 68 1011.0
20260504210404 50 291 1.0 13.0 0.00 0.05 0.05 68 1011.1
20260504205901 50 101 6.0 21.0 0.00 0.05 0.05 66 1011.4
20260504205359 50 276 3.0 17.0 0.00 0.05 0.05 67 1011.3
20260504204857 50 153 6.0 11.0 0.00 0.05 0.05 68 1011.6
20260504204354 50 14 0.0 10.0 0.00 0.05 0.05 69 1011.6
20260504203854 50 145 1.0 17.0 0.00 0.05 0.05 69 1011.9
20260504203350 49 127 4.0 17.0 0.00 0.05 0.05 69 1012.0
20260504202846 50 144 7.0 14.0 0.00 0.05 0.05 69 1012.1
20260504202343 50 93 4.0 18.0 0.00 0.05 0.05 69 1012.2
20260504201840 50 101 2.0 9.0 0.00 0.05 0.05 70 1012.6
20260504201337 49 108 5.0 11.0 0.00 0.05 0.05 70 1012.6